Location: Zagreb
(45.8000°N, 16.0000°E)
Time: 22:52:23
(UTC+02:00)

ISS - Visible Passes

Search period start: 23 July 2017 00:00
Search period end: 02 August 2017 00:00
Orbit: 400 x 408 km, 51.6° (Epoch: 24 July)

Date Brightness Start Highest point End Pass type
(mag) Time Alt. Az. Time Alt. Az. Time Alt. Az.
23 Jul -2.3 00:16:32 10° W 00:19:35 37° NNW 00:22:40 10° NE visible
23 Jul -1.7 01:53:43 10° WNW 01:56:37 28° N 01:59:31 10° ENE visible
23 Jul -3.5 03:30:13 10° WNW 03:33:29 66° NNE 03:36:43 10° ESE visible
23 Jul -3.1 21:47:54 10° SSW 21:50:49 31° SE 21:53:44 10° ENE visible
23 Jul -2.9 23:24:01 10° W 23:27:12 50° NNW 23:30:23 10° ENE visible
24 Jul -1.7 01:01:16 10° WNW 01:04:08 28° N 01:07:01 10° ENE visible
24 Jul -2.7 02:37:57 10° NW 02:41:06 45° NNE 02:44:16 10° E visible
24 Jul -3.3 04:14:31 10° WNW 04:17:33 36° SW 04:20:36 10° SSE visible
24 Jul -3.7 22:31:36 10° WSW 22:34:51 75° NNW 22:38:07 10° ENE visible
25 Jul -1.8 00:08:45 10° WNW 00:11:40 29° N 00:14:35 10° ENE visible
25 Jul -2.2 01:45:39 10° NW 01:48:42 34° NNE 01:51:43 10° E visible
25 Jul -4.0 03:22:06 10° WNW 03:25:20 64° SSW 03:28:34 10° SE visible
25 Jul -3.9 21:39:19 10° SW 21:42:32 66° SSE 21:45:47 10° ENE visible
25 Jul -2.1 23:16:10 10° W 23:19:12 34° NNW 23:22:13 10° NE visible
26 Jul -1.9 00:53:18 10° WNW 00:56:13 29° N 00:56:44 28° NNE visible
26 Jul -2.6 22:23:36 10° W 22:26:45 44° NNW 22:29:54 10° NE visible
27 Jul -1.7 00:00:51 10° WNW 00:03:43 28° N 00:05:20 18° NE visible
27 Jul -1.0 01:37:28 10° WNW 01:37:56 13° NW 01:37:56 13° NW visible
27 Jul -3.4 21:31:06 10° WSW 21:34:20 64° NNW 21:37:35 10° ENE visible
27 Jul -1.8 23:08:19 10° WNW 23:11:12 28° N 23:14:05 10° ENE visible
28 Jul -1.7 00:45:09 10° NW 00:46:57 26° NNW 00:46:57 26° NNW visible
28 Jul -2.0 22:15:42 10° WNW 22:18:41 32° N 22:21:40 10° NE visible
28 Jul -2.1 23:52:46 10° NW 23:55:43 31° N 23:56:05 30° NNE visible
29 Jul -2.4 21:23:05 10° W 21:26:11 40° NNW 21:29:18 10° NE visible
29 Jul -1.8 23:00:18 10° WNW 23:03:11 28° N 23:05:17 15° ENE visible
30 Jul -1.3 00:36:52 10° WNW 00:37:53 18° NW 00:37:53 18° NW visible
30 Jul -1.8 22:07:45 10° WNW 22:10:38 28° N 22:13:30 10° ENE visible
30 Jul -2.4 23:44:30 10° NW 23:47:07 37° N 23:47:07 37° N visible
31 Jul -2.0 21:15:07 10° WNW 21:18:04 30° N 21:21:01 10° NE visible
31 Jul -2.2 22:52:06 10° NW 22:55:06 32° NNE 22:56:21 24° NE visible
01 Aug -0.9 00:28:32 10° WNW 00:28:58 13° WNW 00:28:58 13° WNW visible
01 Aug -2.0 21:59:38 10° WNW 22:02:32 29° N 22:05:26 10° ENE visible
01 Aug -2.3 23:36:08 10° WNW 23:38:14 36° NW 23:38:14 36° NW visible
